Year,Month,Day,Hour,Minute,Value (Times are PST for temperature in C)
2020,09,29,00,00,14.30
2020,09,29,00,01,14.30
2020,09,29,00,02,14.30
2020,09,29,00,03,14.30
2020,09,29,00,04,14.30
2020,09,29,00,05,14.30
2020,09,29,00,06,14.30
2020,09,29,00,07,14.20
2020,09,29,00,08,14.20
2020,09,29,00,09,14.20
2020,09,29,00,10,14.10
2020,09,29,00,11,14.10
2020,09,29,00,12,14.10
2020,09,29,00,13,14.10
2020,09,29,00,14,14.10
2020,09,29,00,15,14.10
2020,09,29,00,16,14.10
2020,09,29,00,17,14.10
2020,09,29,00,18,14.00
2020,09,29,00,19,14.00
2020,09,29,00,20,14.00
2020,09,29,00,21,14.00
2020,09,29,00,22,14.00
2020,09,29,00,23,14.00
2020,09,29,00,24,14.00
2020,09,29,00,25,14.00
2020,09,29,00,26,14.00
2020,09,29,00,27,14.00
2020,09,29,00,28,14.00
2020,09,29,00,29,14.00
2020,09,29,00,30,14.00
2020,09,29,00,31,14.00
2020,09,29,00,32,14.00
2020,09,29,00,33,14.00
2020,09,29,00,34,14.00
2020,09,29,00,35,14.00
2020,09,29,00,36,14.00
2020,09,29,00,37,13.90
2020,09,29,00,38,13.90
2020,09,29,00,39,13.90
2020,09,29,00,40,14.00
2020,09,29,00,41,14.00
2020,09,29,00,42,14.00
2020,09,29,00,43,14.00
2020,09,29,00,44,14.00
2020,09,29,00,45,14.00
2020,09,29,00,46,14.00
2020,09,29,00,47,14.00
2020,09,29,00,48,14.00
2020,09,29,00,49,14.00
2020,09,29,00,50,13.90
2020,09,29,00,51,13.90
2020,09,29,00,52,13.90
2020,09,29,00,53,13.90
2020,09,29,00,54,13.80
2020,09,29,00,55,13.80
2020,09,29,00,56,13.80
2020,09,29,00,57,13.80
2020,09,29,00,58,13.80
2020,09,29,00,59,13.80
2020,09,29,01,00,13.80
2020,09,29,01,01,13.80
2020,09,29,01,02,13.80
2020,09,29,01,03,13.90
2020,09,29,01,04,13.90
2020,09,29,01,05,13.90
2020,09,29,01,06,13.90
2020,09,29,01,07,13.90
2020,09,29,01,08,13.90
2020,09,29,01,09,13.90
2020,09,29,01,10,14.00
2020,09,29,01,11,14.00
2020,09,29,01,12,14.00
2020,09,29,01,13,14.00
2020,09,29,01,14,14.00
2020,09,29,01,15,14.00
2020,09,29,01,16,13.90
2020,09,29,01,17,13.90
2020,09,29,01,18,13.90
2020,09,29,01,19,13.90
2020,09,29,01,20,14.00
2020,09,29,01,21,14.00
2020,09,29,01,22,13.90
2020,09,29,01,23,13.90
2020,09,29,01,24,13.90
2020,09,29,01,25,13.90
2020,09,29,01,26,13.90
2020,09,29,01,27,13.80
2020,09,29,01,28,13.80
2020,09,29,01,29,13.80
2020,09,29,01,30,13.80
2020,09,29,01,31,13.70
2020,09,29,01,32,13.70
2020,09,29,01,33,13.70
2020,09,29,01,34,13.70
2020,09,29,01,35,13.70
2020,09,29,01,36,13.70
2020,09,29,01,37,13.60
2020,09,29,01,38,13.60
2020,09,29,01,39,13.60
2020,09,29,01,40,13.60
2020,09,29,01,41,13.60
2020,09,29,01,42,13.60
2020,09,29,01,43,13.50
2020,09,29,01,44,13.50
2020,09,29,01,45,13.50
2020,09,29,01,46,13.50
2020,09,29,01,47,13.50
2020,09,29,01,48,13.40
2020,09,29,01,49,13.40
2020,09,29,01,50,13.40
2020,09,29,01,51,13.40
2020,09,29,01,52,13.40
2020,09,29,01,53,13.40
2020,09,29,01,54,13.40
2020,09,29,01,55,13.40
2020,09,29,01,56,13.40
2020,09,29,01,57,13.40
2020,09,29,01,58,13.40
2020,09,29,01,59,13.30
2020,09,29,02,00,13.30
2020,09,29,02,01,13.30
2020,09,29,02,02,13.30
2020,09,29,02,03,13.30
2020,09,29,02,04,13.30
2020,09,29,02,05,13.20
2020,09,29,02,06,13.20
2020,09,29,02,07,13.20
2020,09,29,02,08,13.20
2020,09,29,02,09,13.20
2020,09,29,02,10,13.20
2020,09,29,02,11,13.20
2020,09,29,02,12,13.20
2020,09,29,02,13,13.20
2020,09,29,02,14,13.20
2020,09,29,02,15,13.20
2020,09,29,02,16,13.20
2020,09,29,02,17,13.20
2020,09,29,02,18,13.10
2020,09,29,02,19,13.10
2020,09,29,02,20,13.10
2020,09,29,02,21,13.10
2020,09,29,02,22,13.10
2020,09,29,02,23,13.10
2020,09,29,02,24,13.10
2020,09,29,02,25,13.10
2020,09,29,02,26,13.10
2020,09,29,02,27,13.10
2020,09,29,02,28,13.10
2020,09,29,02,29,13.10
2020,09,29,02,30,13.10
2020,09,29,02,31,13.10
2020,09,29,02,32,13.10
2020,09,29,02,33,13.00
2020,09,29,02,34,13.00
2020,09,29,02,35,13.00
2020,09,29,02,36,13.00
2020,09,29,02,37,12.90
2020,09,29,02,38,12.90
2020,09,29,02,39,12.80
2020,09,29,02,40,12.80
2020,09,29,02,41,12.80
2020,09,29,02,42,12.80
2020,09,29,02,43,12.80
2020,09,29,02,44,12.80
2020,09,29,02,45,12.80
2020,09,29,02,46,12.80
2020,09,29,02,47,12.80
2020,09,29,02,48,12.80
2020,09,29,02,49,12.80
2020,09,29,02,50,12.90
2020,09,29,02,51,12.90
2020,09,29,02,52,13.00
2020,09,29,02,53,13.10
2020,09,29,02,54,13.10
2020,09,29,02,55,13.20
2020,09,29,02,56,13.30
2020,09,29,02,57,13.30
2020,09,29,02,58,13.40
2020,09,29,02,59,13.40
2020,09,29,03,00,13.40
2020,09,29,03,01,13.50
2020,09,29,03,02,13.50
2020,09,29,03,03,13.60
2020,09,29,03,04,13.60
2020,09,29,03,05,13.60
2020,09,29,03,06,13.60
2020,09,29,03,07,13.70
2020,09,29,03,08,13.70
2020,09,29,03,09,13.70
2020,09,29,03,10,13.70
2020,09,29,03,11,13.70
2020,09,29,03,12,13.80
2020,09,29,03,13,13.80
2020,09,29,03,14,13.80
2020,09,29,03,15,13.80
2020,09,29,03,16,13.90
2020,09,29,03,17,13.90
2020,09,29,03,18,13.90
2020,09,29,03,19,13.90
2020,09,29,03,20,13.90
2020,09,29,03,21,13.90
2020,09,29,03,22,13.90
2020,09,29,03,23,13.90
2020,09,29,03,24,13.90
2020,09,29,03,25,13.90
2020,09,29,03,26,13.90
2020,09,29,03,27,13.80
2020,09,29,03,28,13.80
2020,09,29,03,29,13.80
2020,09,29,03,30,13.80
2020,09,29,03,31,13.80
2020,09,29,03,32,13.80
2020,09,29,03,33,13.70
2020,09,29,03,34,13.70
2020,09,29,03,35,13.70
2020,09,29,03,36,13.70
2020,09,29,03,37,13.60
2020,09,29,03,38,13.60
2020,09,29,03,39,13.60
2020,09,29,03,40,13.60
2020,09,29,03,41,13.60
2020,09,29,03,42,13.60
2020,09,29,03,43,13.60
2020,09,29,03,44,13.60
2020,09,29,03,45,13.60
2020,09,29,03,46,13.60
2020,09,29,03,47,13.60
2020,09,29,03,48,13.70
2020,09,29,03,49,13.70
2020,09,29,03,50,13.70
2020,09,29,03,51,13.70
2020,09,29,03,52,13.70
2020,09,29,03,53,13.70
2020,09,29,03,54,13.70
2020,09,29,03,55,13.70
2020,09,29,03,56,13.70
2020,09,29,03,57,13.70
2020,09,29,03,58,13.60
2020,09,29,03,59,13.60
2020,09,29,04,00,13.60
2020,09,29,04,01,13.60
2020,09,29,04,02,13.60
2020,09,29,04,03,13.60
2020,09,29,04,04,13.60
2020,09,29,04,05,13.60
2020,09,29,04,06,13.60
2020,09,29,04,07,13.60
2020,09,29,04,08,13.60
2020,09,29,04,09,13.70
2020,09,29,04,10,13.70
2020,09,29,04,11,13.80
2020,09,29,04,12,13.90
2020,09,29,04,13,14.00
2020,09,29,04,14,14.00
2020,09,29,04,15,14.10
2020,09,29,04,16,14.20
2020,09,29,04,17,14.20
2020,09,29,04,18,14.30
2020,09,29,04,19,14.30
2020,09,29,04,20,14.50
2020,09,29,04,21,14.50
2020,09,29,04,22,14.60
2020,09,29,04,23,14.70
2020,09,29,04,24,14.70
2020,09,29,04,25,14.70
2020,09,29,04,26,14.80
2020,09,29,04,27,14.90
2020,09,29,04,28,14.90
2020,09,29,04,29,15.00
2020,09,29,04,30,15.10
2020,09,29,04,31,15.10
2020,09,29,04,32,15.20
2020,09,29,04,33,15.30
2020,09,29,04,34,15.30
2020,09,29,04,35,15.30
2020,09,29,04,36,15.30
2020,09,29,04,37,15.30
2020,09,29,04,38,15.40
2020,09,29,04,39,15.40
2020,09,29,04,40,15.40
2020,09,29,04,41,15.40
2020,09,29,04,42,15.40
2020,09,29,04,43,15.40
2020,09,29,04,44,15.40
2020,09,29,04,45,15.40
2020,09,29,04,46,15.40
2020,09,29,04,47,15.40
2020,09,29,04,48,15.40
2020,09,29,04,49,15.40
2020,09,29,04,50,15.40
2020,09,29,04,51,15.40
2020,09,29,04,52,15.40
2020,09,29,04,53,15.40
2020,09,29,04,54,15.40
2020,09,29,04,55,15.40
2020,09,29,04,56,15.40
2020,09,29,04,57,15.40
2020,09,29,04,58,15.40
2020,09,29,04,59,15.40
2020,09,29,05,00,15.40
2020,09,29,05,01,15.30
2020,09,29,05,02,15.30
2020,09,29,05,03,15.30
2020,09,29,05,04,15.30
2020,09,29,05,05,15.30
2020,09,29,05,06,15.30
2020,09,29,05,07,15.40
2020,09,29,05,08,15.40
2020,09,29,05,09,15.40
2020,09,29,05,10,15.40
2020,09,29,05,11,15.40
2020,09,29,05,12,15.40
2020,09,29,05,13,15.40
2020,09,29,05,14,15.40
2020,09,29,05,15,15.40
2020,09,29,05,16,15.40
2020,09,29,05,17,15.40
2020,09,29,05,18,15.40
2020,09,29,05,19,15.30
2020,09,29,05,20,15.30
2020,09,29,05,21,15.30
2020,09,29,05,22,15.20
2020,09,29,05,23,15.10
2020,09,29,05,24,15.00
2020,09,29,05,25,14.90
2020,09,29,05,26,14.80
2020,09,29,05,27,14.70
2020,09,29,05,28,14.60
2020,09,29,05,29,14.50
2020,09,29,05,30,14.30
2020,09,29,05,31,14.30
2020,09,29,05,32,14.20
2020,09,29,05,33,14.10
2020,09,29,05,34,14.10
2020,09,29,05,35,14.00
2020,09,29,05,36,14.00
2020,09,29,05,37,13.90
2020,09,29,05,38,13.90
2020,09,29,05,39,13.80
2020,09,29,05,40,13.80
2020,09,29,05,41,13.80
2020,09,29,05,42,13.70
2020,09,29,05,43,13.70
2020,09,29,05,44,13.60
2020,09,29,05,45,13.60
2020,09,29,05,46,13.50
2020,09,29,05,47,13.50
2020,09,29,05,48,13.40
2020,09,29,05,49,13.30
2020,09,29,05,50,13.30
2020,09,29,05,51,13.30
2020,09,29,05,52,13.30
2020,09,29,05,53,13.20
2020,09,29,05,54,13.20
2020,09,29,05,55,13.20
2020,09,29,05,56,13.20
2020,09,29,05,57,13.20
2020,09,29,05,58,13.20
2020,09,29,05,59,13.10
2020,09,29,06,00,13.10
2020,09,29,06,01,13.10
2020,09,29,06,02,13.10
2020,09,29,06,03,13.10
2020,09,29,06,04,13.10
2020,09,29,06,05,13.10
2020,09,29,06,06,13.10
2020,09,29,06,07,13.10
2020,09,29,06,08,13.10
2020,09,29,06,09,13.20
2020,09,29,06,10,13.20
2020,09,29,06,11,13.20
2020,09,29,06,12,13.30
2020,09,29,06,13,13.30
2020,09,29,06,14,13.30
2020,09,29,06,15,13.30
2020,09,29,06,16,13.30
2020,09,29,06,17,13.30
2020,09,29,06,18,13.30
2020,09,29,06,19,13.30
2020,09,29,06,20,13.30
2020,09,29,06,21,13.30
2020,09,29,06,22,13.30
2020,09,29,06,23,13.40
2020,09,29,06,24,13.40
2020,09,29,06,25,13.40
2020,09,29,06,26,13.40
2020,09,29,06,27,13.40
2020,09,29,06,28,13.40
2020,09,29,06,29,13.40
2020,09,29,06,30,13.40
2020,09,29,06,31,13.40
2020,09,29,06,32,13.40
2020,09,29,06,33,13.40
2020,09,29,06,34,13.30
2020,09,29,06,35,13.30
2020,09,29,06,36,13.30
2020,09,29,06,37,13.20
2020,09,29,06,38,13.20
2020,09,29,06,39,13.20
2020,09,29,06,40,13.10
2020,09,29,06,41,13.10
2020,09,29,06,42,13.00
2020,09,29,06,43,13.00
2020,09,29,06,44,12.90
2020,09,29,06,45,12.90
2020,09,29,06,46,12.90
2020,09,29,06,47,12.90
2020,09,29,06,48,12.80
2020,09,29,06,49,12.80
2020,09,29,06,50,12.80
2020,09,29,06,51,12.80
2020,09,29,06,52,12.70
2020,09,29,06,53,12.70
2020,09,29,06,54,12.70
2020,09,29,06,55,12.60
2020,09,29,06,56,12.60
2020,09,29,06,57,12.60
2020,09,29,06,58,12.60
2020,09,29,06,59,12.50
2020,09,29,07,00,12.50
2020,09,29,07,01,12.50
2020,09,29,07,02,12.50
2020,09,29,07,03,12.50
2020,09,29,07,04,12.50
2020,09,29,07,05,12.50
2020,09,29,07,06,12.50
2020,09,29,07,07,12.50
2020,09,29,07,08,12.60
2020,09,29,07,09,12.60
2020,09,29,07,10,12.60
2020,09,29,07,11,12.60
2020,09,29,07,12,12.60
2020,09,29,07,13,12.60
2020,09,29,07,14,12.60
2020,09,29,07,15,12.60
2020,09,29,07,16,12.60
2020,09,29,07,17,12.60
2020,09,29,07,18,12.70
2020,09,29,07,19,12.70
2020,09,29,07,20,12.70
2020,09,29,07,21,12.70
2020,09,29,07,22,12.70
2020,09,29,07,23,12.70
2020,09,29,07,24,12.70
2020,09,29,07,25,12.70
2020,09,29,07,26,12.70
2020,09,29,07,27,12.70
2020,09,29,07,28,12.70
2020,09,29,07,29,12.60
2020,09,29,07,30,12.60
2020,09,29,07,31,12.60
2020,09,29,07,32,12.60
2020,09,29,07,33,12.60
2020,09,29,07,34,12.60
2020,09,29,07,35,12.60
2020,09,29,07,36,12.50
2020,09,29,07,37,12.50
2020,09,29,07,38,12.50
2020,09,29,07,39,12.50
2020,09,29,07,40,12.40
2020,09,29,07,41,12.50
2020,09,29,07,42,12.50
2020,09,29,07,43,12.50
2020,09,29,07,44,12.50
2020,09,29,07,45,12.50
2020,09,29,07,46,12.50
2020,09,29,07,47,12.50
2020,09,29,07,48,12.60
2020,09,29,07,49,12.60
2020,09,29,07,50,12.60
2020,09,29,07,51,12.60
2020,09,29,07,52,12.70
2020,09,29,07,53,12.60
2020,09,29,07,54,12.60
2020,09,29,07,55,12.60
2020,09,29,07,56,12.60
2020,09,29,07,57,12.60
2020,09,29,07,58,12.60
2020,09,29,07,59,12.60
2020,09,29,08,00,12.60
2020,09,29,08,01,12.50
2020,09,29,08,02,12.50
2020,09,29,08,03,12.50
2020,09,29,08,04,12.50
2020,09,29,08,05,12.50
2020,09,29,08,06,12.50
2020,09,29,08,07,12.50
2020,09,29,08,08,12.50
2020,09,29,08,09,12.50
2020,09,29,08,10,12.50
2020,09,29,08,11,12.50
2020,09,29,08,12,12.60
2020,09,29,08,13,12.60
2020,09,29,08,14,12.60
2020,09,29,08,15,12.60
2020,09,29,08,16,12.60
2020,09,29,08,17,12.60
2020,09,29,08,18,12.60
2020,09,29,08,19,12.70
2020,09,29,08,20,12.70
2020,09,29,08,21,12.80
2020,09,29,08,22,12.90
2020,09,29,08,23,13.10
2020,09,29,08,24,13.10
2020,09,29,08,25,13.20
2020,09,29,08,26,13.30
2020,09,29,08,27,13.40
2020,09,29,08,28,13.50
2020,09,29,08,29,13.50
2020,09,29,08,30,13.60
2020,09,29,08,31,13.70
2020,09,29,08,32,13.70
2020,09,29,08,33,13.80
2020,09,29,08,34,13.80
2020,09,29,08,35,13.90
2020,09,29,08,36,14.00
2020,09,29,08,37,14.00
2020,09,29,08,38,14.10
2020,09,29,08,39,14.10
2020,09,29,08,40,14.10
2020,09,29,08,41,14.20
2020,09,29,08,42,14.20
2020,09,29,08,43,14.20
2020,09,29,08,44,14.30
2020,09,29,08,45,14.30
2020,09,29,08,46,14.40
2020,09,29,08,47,14.50
2020,09,29,08,48,14.60
2020,09,29,08,49,14.70
2020,09,29,08,50,14.80
2020,09,29,08,51,14.80
2020,09,29,08,52,14.90
2020,09,29,08,53,15.00
2020,09,29,08,54,15.00
2020,09,29,08,55,15.10
2020,09,29,08,56,15.20
2020,09,29,08,57,15.20
2020,09,29,08,58,15.30
2020,09,29,08,59,15.50
2020,09,29,09,00,15.70
2020,09,29,09,01,15.80
2020,09,29,09,02,16.00
2020,09,29,09,03,16.10
2020,09,29,09,04,16.20
2020,09,29,09,05,16.30
2020,09,29,09,06,16.50
2020,09,29,09,07,16.70
2020,09,29,09,08,16.80
2020,09,29,09,09,16.90
2020,09,29,09,10,17.10
2020,09,29,09,11,17.20
2020,09,29,09,12,17.30
2020,09,29,09,13,17.40
2020,09,29,09,14,17.50
2020,09,29,09,15,17.50
2020,09,29,09,16,17.60
2020,09,29,09,17,17.60
2020,09,29,09,18,17.70
2020,09,29,09,19,17.80
2020,09,29,09,20,17.80
2020,09,29,09,21,17.90
2020,09,29,09,22,18.00
2020,09,29,09,23,18.10
2020,09,29,09,24,18.10
2020,09,29,09,25,18.20
2020,09,29,09,26,18.30
2020,09,29,09,27,18.40
2020,09,29,09,28,18.40
2020,09,29,09,29,18.50
2020,09,29,09,30,18.40
2020,09,29,09,31,18.50
2020,09,29,09,32,18.50
2020,09,29,09,33,18.60
2020,09,29,09,34,18.60
2020,09,29,09,35,18.60
2020,09,29,09,36,18.70
2020,09,29,09,37,18.70
2020,09,29,09,38,18.80
2020,09,29,09,39,18.80
2020,09,29,09,40,18.80
2020,09,29,09,41,18.80
2020,09,29,09,42,18.80
2020,09,29,09,43,18.80
2020,09,29,09,44,18.80
2020,09,29,09,45,18.90
2020,09,29,09,46,19.00
2020,09,29,09,47,19.10
2020,09,29,09,48,19.20
2020,09,29,09,49,19.20
2020,09,29,09,50,19.20
2020,09,29,09,51,19.20
2020,09,29,09,52,19.30
2020,09,29,09,53,19.30
2020,09,29,09,54,19.30
2020,09,29,09,55,19.30
2020,09,29,09,56,19.40
2020,09,29,09,57,19.40
2020,09,29,09,58,19.50
2020,09,29,09,59,19.50
2020,09,29,10,00,19.60
2020,09,29,10,01,19.60
2020,09,29,10,02,19.70
2020,09,29,10,03,19.70
2020,09,29,10,04,19.70
2020,09,29,10,05,19.80
2020,09,29,10,06,19.80
2020,09,29,10,07,19.90
2020,09,29,10,08,19.90
2020,09,29,10,09,20.00
2020,09,29,10,10,20.10
2020,09,29,10,11,20.20
2020,09,29,10,12,20.20
2020,09,29,10,13,20.30
2020,09,29,10,14,20.40
2020,09,29,10,15,20.50
2020,09,29,10,16,20.50
2020,09,29,10,17,20.50
2020,09,29,10,18,20.60
2020,09,29,10,19,20.50
2020,09,29,10,20,20.60
2020,09,29,10,21,20.60
2020,09,29,10,22,20.60
2020,09,29,10,23,20.60
2020,09,29,10,24,20.70
2020,09,29,10,25,20.60
2020,09,29,10,26,20.60
2020,09,29,10,27,20.60
2020,09,29,10,28,20.70
2020,09,29,10,29,20.70
2020,09,29,10,30,20.80
2020,09,29,10,31,20.80
2020,09,29,10,32,20.80
2020,09,29,10,33,20.80
2020,09,29,10,34,20.90
2020,09,29,10,35,20.90
2020,09,29,10,36,20.90
2020,09,29,10,37,20.90
2020,09,29,10,38,20.90
2020,09,29,10,39,21.00
2020,09,29,10,40,21.00
2020,09,29,10,41,20.90
2020,09,29,10,42,20.90
2020,09,29,10,43,21.00
2020,09,29,10,44,21.00
2020,09,29,10,45,21.00
2020,09,29,10,46,21.00
2020,09,29,10,47,21.10
2020,09,29,10,48,21.10
2020,09,29,10,49,21.20
2020,09,29,10,50,21.30
2020,09,29,10,51,21.30
2020,09,29,10,52,21.30
2020,09,29,10,53,21.30
2020,09,29,10,54,21.30
2020,09,29,10,55,21.30
2020,09,29,10,56,21.40
2020,09,29,10,57,21.40
2020,09,29,10,58,21.50
2020,09,29,10,59,21.40
2020,09,29,11,00,21.40
2020,09,29,11,01,21.40
2020,09,29,11,02,21.50
2020,09,29,11,03,21.70
2020,09,29,11,04,21.80
2020,09,29,11,05,21.90
2020,09,29,11,06,21.90
2020,09,29,11,07,22.00
2020,09,29,11,08,22.10
2020,09,29,11,09,22.20
2020,09,29,11,10,22.30
2020,09,29,11,11,22.30
2020,09,29,11,12,22.30
2020,09,29,11,13,22.30
2020,09,29,11,14,22.20
2020,09,29,11,15,22.30
2020,09,29,11,16,22.40
2020,09,29,11,17,22.40
2020,09,29,11,18,22.40
2020,09,29,11,19,22.50
2020,09,29,11,20,22.50
2020,09,29,11,21,22.50
2020,09,29,11,22,22.50
2020,09,29,11,23,22.40
2020,09,29,11,24,22.40
2020,09,29,11,25,22.40
2020,09,29,11,26,22.40
2020,09,29,11,27,22.50
2020,09,29,11,28,22.60
2020,09,29,11,29,22.60
2020,09,29,11,30,22.60
2020,09,29,11,31,22.60
2020,09,29,11,32,22.60
2020,09,29,11,33,22.60
2020,09,29,11,34,22.70
2020,09,29,11,35,22.70
2020,09,29,11,36,22.80
2020,09,29,11,37,22.80
2020,09,29,11,38,22.80
2020,09,29,11,39,22.80
2020,09,29,11,40,22.80
2020,09,29,11,41,22.80
2020,09,29,11,42,22.70
2020,09,29,11,43,22.70
2020,09,29,11,44,22.70
2020,09,29,11,45,22.80
2020,09,29,11,46,22.80
2020,09,29,11,47,22.90
2020,09,29,11,48,23.10
2020,09,29,11,49,23.10
2020,09,29,11,50,23.20
2020,09,29,11,51,23.20
2020,09,29,11,52,23.20
2020,09,29,11,53,23.20
2020,09,29,11,54,23.20
2020,09,29,11,55,23.10
2020,09,29,11,56,23.10
2020,09,29,11,57,23.10
2020,09,29,11,58,23.20
2020,09,29,11,59,23.20
2020,09,29,12,00,23.20
2020,09,29,12,01,23.20
2020,09,29,12,02,23.10
2020,09,29,12,03,23.10
2020,09,29,12,04,23.20
2020,09,29,12,05,23.20
2020,09,29,12,06,23.30
2020,09,29,12,07,23.40
2020,09,29,12,08,23.50
2020,09,29,12,09,23.60
2020,09,29,12,10,23.60
2020,09,29,12,11,23.70
2020,09,29,12,12,23.70
2020,09,29,12,13,23.80
2020,09,29,12,14,23.80
2020,09,29,12,15,23.70
2020,09,29,12,16,23.70
2020,09,29,12,17,23.60
2020,09,29,12,18,23.60
2020,09,29,12,19,23.60
2020,09,29,12,20,23.60
2020,09,29,12,21,23.60
2020,09,29,12,22,23.60
2020,09,29,12,23,23.60
2020,09,29,12,24,23.60
2020,09,29,12,25,23.50
2020,09,29,12,26,23.40
2020,09,29,12,27,23.40
2020,09,29,12,28,23.40
2020,09,29,12,29,23.50
2020,09,29,12,30,23.50
2020,09,29,12,31,23.50
2020,09,29,12,32,23.50
2020,09,29,12,33,23.50
2020,09,29,12,34,23.50
2020,09,29,12,35,23.50
2020,09,29,12,36,23.60
2020,09,29,12,37,23.70
2020,09,29,12,38,23.70
2020,09,29,12,39,23.70
2020,09,29,12,40,23.70
2020,09,29,12,41,23.70
2020,09,29,12,42,23.80
2020,09,29,12,43,23.80
2020,09,29,12,44,23.80
2020,09,29,12,45,23.70
2020,09,29,12,46,23.70
2020,09,29,12,47,23.80
2020,09,29,12,48,23.80
2020,09,29,12,49,23.90
2020,09,29,12,50,24.00
2020,09,29,12,51,24.10
2020,09,29,12,52,24.10
2020,09,29,12,53,24.20
2020,09,29,12,54,24.30
2020,09,29,12,55,24.30
2020,09,29,12,56,24.30
2020,09,29,12,57,24.30
2020,09,29,12,58,24.30
2020,09,29,12,59,24.40
2020,09,29,13,00,24.30
2020,09,29,13,01,24.30
2020,09,29,13,02,24.30
2020,09,29,13,03,24.30
2020,09,29,13,04,24.30
2020,09,29,13,05,24.30
2020,09,29,13,06,24.40
2020,09,29,13,07,24.40
2020,09,29,13,08,24.50
2020,09,29,13,09,24.50
2020,09,29,13,10,24.50
2020,09,29,13,11,24.50
2020,09,29,13,12,24.60
2020,09,29,13,13,24.60
2020,09,29,13,14,24.70
2020,09,29,13,15,24.80
2020,09,29,13,16,24.90
2020,09,29,13,17,25.00
2020,09,29,13,18,25.00
2020,09,29,13,19,25.10
2020,09,29,13,20,25.10
2020,09,29,13,21,25.10
2020,09,29,13,22,25.10
2020,09,29,13,23,25.20
2020,09,29,13,24,25.30
2020,09,29,13,25,25.30
2020,09,29,13,26,25.40
2020,09,29,13,27,25.50
2020,09,29,13,28,25.50
2020,09,29,13,29,25.40
2020,09,29,13,30,25.30
2020,09,29,13,31,25.30
2020,09,29,13,32,25.20
2020,09,29,13,33,25.20
2020,09,29,13,34,25.20
2020,09,29,13,35,25.20
2020,09,29,13,36,25.20
2020,09,29,13,37,25.30
2020,09,29,13,38,25.20
2020,09,29,13,39,25.10
2020,09,29,13,40,25.10
2020,09,29,13,41,25.00
2020,09,29,13,42,24.90
2020,09,29,13,43,24.90
2020,09,29,13,44,24.90
2020,09,29,13,45,24.90
2020,09,29,13,46,24.80
2020,09,29,13,47,24.80
2020,09,29,13,48,24.90
2020,09,29,13,49,25.00
2020,09,29,13,50,25.00
2020,09,29,13,51,24.90
2020,09,29,13,52,24.80
2020,09,29,13,53,24.80
2020,09,29,13,54,24.80
2020,09,29,13,55,24.90
2020,09,29,13,56,25.00
2020,09,29,13,57,25.10
2020,09,29,13,58,25.30
2020,09,29,13,59,25.40
2020,09,29,14,00,25.50
2020,09,29,14,01,25.50
2020,09,29,14,02,25.60
2020,09,29,14,03,25.70
2020,09,29,14,04,25.70
2020,09,29,14,05,25.70
2020,09,29,14,06,25.70
2020,09,29,14,07,25.70
2020,09,29,14,08,25.80
2020,09,29,14,09,25.80
2020,09,29,14,10,25.80
2020,09,29,14,11,25.70
2020,09,29,14,12,25.60
2020,09,29,14,13,25.60
2020,09,29,14,14,25.40
2020,09,29,14,15,25.40
2020,09,29,14,16,25.30
2020,09,29,14,17,25.20
2020,09,29,14,18,25.10
2020,09,29,14,19,25.20
2020,09,29,14,20,25.30
2020,09,29,14,21,25.30
2020,09,29,14,22,25.30
2020,09,29,14,23,25.30
2020,09,29,14,24,25.30
2020,09,29,14,25,25.30
2020,09,29,14,26,25.20
2020,09,29,14,27,25.20
2020,09,29,14,28,25.20
2020,09,29,14,29,25.30
2020,09,29,14,30,25.40
2020,09,29,14,31,25.50
2020,09,29,14,32,25.50
2020,09,29,14,33,25.40
2020,09,29,14,34,25.40
2020,09,29,14,35,25.40
2020,09,29,14,36,25.40
2020,09,29,14,37,25.50
2020,09,29,14,38,25.50
2020,09,29,14,39,25.40
2020,09,29,14,40,25.40
2020,09,29,14,41,25.50
2020,09,29,14,42,25.60
2020,09,29,14,43,25.60
2020,09,29,14,44,25.60
2020,09,29,14,45,25.60
2020,09,29,14,46,25.60
2020,09,29,14,47,25.70
2020,09,29,14,48,25.70
2020,09,29,14,49,25.80
2020,09,29,14,50,25.80
2020,09,29,14,51,25.70
2020,09,29,14,52,25.60
2020,09,29,14,53,25.70
2020,09,29,14,54,25.70
2020,09,29,14,55,25.70
2020,09,29,14,56,25.60
2020,09,29,14,57,25.50
2020,09,29,14,58,25.50
2020,09,29,14,59,25.40
2020,09,29,15,00,25.50
2020,09,29,15,01,25.50
2020,09,29,15,02,25.60
2020,09,29,15,03,25.60
2020,09,29,15,04,25.60
2020,09,29,15,05,25.60
2020,09,29,15,06,25.50
2020,09,29,15,07,25.50
2020,09,29,15,08,25.40
2020,09,29,15,09,25.40
2020,09,29,15,10,25.40
2020,09,29,15,11,25.50
2020,09,29,15,12,25.50
2020,09,29,15,13,25.60
2020,09,29,15,14,25.60
2020,09,29,15,15,25.60
2020,09,29,15,16,25.60
2020,09,29,15,17,25.60
2020,09,29,15,18,25.60
2020,09,29,15,19,25.60
2020,09,29,15,20,25.70
2020,09,29,15,21,25.70
2020,09,29,15,22,25.70
2020,09,29,15,23,25.70
2020,09,29,15,24,25.80
2020,09,29,15,25,25.80
2020,09,29,15,26,25.80
2020,09,29,15,27,25.90
2020,09,29,15,28,26.00
2020,09,29,15,29,26.00
2020,09,29,15,30,25.90
2020,09,29,15,31,25.90
2020,09,29,15,32,25.90
2020,09,29,15,33,25.80
2020,09,29,15,34,25.70
2020,09,29,15,35,25.50
2020,09,29,15,36,25.40
2020,09,29,15,37,25.30
2020,09,29,15,38,25.40
2020,09,29,15,39,25.40
2020,09,29,15,40,25.40
2020,09,29,15,41,25.40
2020,09,29,15,42,25.50
2020,09,29,15,43,25.60
2020,09,29,15,44,25.70
2020,09,29,15,45,25.70
2020,09,29,15,46,25.60
2020,09,29,15,47,25.60
2020,09,29,15,48,25.70
2020,09,29,15,49,25.70
2020,09,29,15,50,25.50
2020,09,29,15,51,25.50
2020,09,29,15,52,25.50
2020,09,29,15,53,25.60
2020,09,29,15,54,25.70
2020,09,29,15,55,25.80
2020,09,29,15,56,25.90
2020,09,29,15,57,25.90
2020,09,29,15,58,25.80
2020,09,29,15,59,25.80
2020,09,29,16,00,25.80
2020,09,29,16,01,25.80
2020,09,29,16,02,25.70
2020,09,29,16,03,25.60
2020,09,29,16,04,25.60
2020,09,29,16,05,25.50
2020,09,29,16,06,25.50
2020,09,29,16,07,25.40
2020,09,29,16,08,25.50
2020,09,29,16,09,25.50
2020,09,29,16,10,25.60
2020,09,29,16,11,25.60
2020,09,29,16,12,25.60
2020,09,29,16,13,25.50
2020,09,29,16,14,25.40
2020,09,29,16,15,25.40
2020,09,29,16,16,25.40
2020,09,29,16,17,25.30
2020,09,29,16,18,25.40
2020,09,29,16,19,25.30
2020,09,29,16,20,25.30
2020,09,29,16,21,25.30
2020,09,29,16,22,25.20
2020,09,29,16,23,25.10
2020,09,29,16,24,25.10
2020,09,29,16,25,25.10
2020,09,29,16,26,25.20
2020,09,29,16,27,25.20
2020,09,29,16,28,25.20
2020,09,29,16,29,25.20
2020,09,29,16,30,25.10
2020,09,29,16,31,25.10
2020,09,29,16,32,25.00
2020,09,29,16,33,24.90
2020,09,29,16,34,24.90
2020,09,29,16,35,24.90
2020,09,29,16,36,24.90
2020,09,29,16,37,24.90
2020,09,29,16,38,25.00
2020,09,29,16,39,25.00
2020,09,29,16,40,24.90
2020,09,29,16,41,25.00
2020,09,29,16,42,25.00
2020,09,29,16,43,24.90
2020,09,29,16,44,24.90
2020,09,29,16,45,24.90
2020,09,29,16,46,24.90
2020,09,29,16,47,24.80
2020,09,29,16,48,24.60
2020,09,29,16,49,24.50
2020,09,29,16,50,24.40
2020,09,29,16,51,24.30
2020,09,29,16,52,24.20
2020,09,29,16,53,24.20
2020,09,29,16,54,24.20
2020,09,29,16,55,24.20
2020,09,29,16,56,24.20
2020,09,29,16,57,24.30
2020,09,29,16,58,24.30
2020,09,29,16,59,24.30
2020,09,29,17,00,24.20
2020,09,29,17,01,24.20
2020,09,29,17,02,24.30
2020,09,29,17,03,24.30
2020,09,29,17,04,24.30
2020,09,29,17,05,24.40
2020,09,29,17,06,24.40
2020,09,29,17,07,24.50
2020,09,29,17,08,24.60
2020,09,29,17,09,24.60
2020,09,29,17,10,24.60
2020,09,29,17,11,24.50
2020,09,29,17,12,24.40
2020,09,29,17,13,24.30
2020,09,29,17,14,24.30
2020,09,29,17,15,24.30
2020,09,29,17,16,24.20
2020,09,29,17,17,24.10
2020,09,29,17,18,24.00
2020,09,29,17,19,24.00